Address 0xac70bfe5c17c82f00492beb552170cdbf2dae837

 
Ad
Ad
Txn Hash Method
Block
From
To
Value [Txn Fee]
0x863c3cab9629ad172d8c80adf49671bb68184474d6c89529c4affb992c72b302Execute Meta Tra...219701842021-11-30 10:08:477 mins ago0xac70bfe5c17c82f00492beb552170cdbf2dae837OUT 0xbf79ce2fbd819e5abc2327563d02a200255b7cb30 MATIC0.006554373
0x741f6e24fb313743a10185321356f91c6cdf31c401da2a2e73211e5bf188e371Execute Meta Tra...219698702021-11-30 9:57:5918 mins ago0xac70bfe5c17c82f00492beb552170cdbf2dae837OUT 0x89aac1f5ccdd54dd8a09e5c858f19a665e4fa32b0 MATIC0.028485807
0x71adb9f243faf21cbc9fe6cb786713451a6c42d9d1aedf60d42b4b68f46b10abExecute Meta Tra...219696672021-11-30 9:50:1725 mins ago0xac70bfe5c17c82f00492beb552170cdbf2dae837OUT 0x89aac1f5ccdd54dd8a09e5c858f19a665e4fa32b0 MATIC0.028484211
0x972b8726c5280ad3c2f28de6a1b7d9abda005962e9121f6e63db8d1dde9e4e8eExecute Meta Tra...219684642021-11-30 9:07:361 hr 8 mins ago0xac70bfe5c17c82f00492beb552170cdbf2dae837OUT 0x89aac1f5ccdd54dd8a09e5c858f19a665e4fa32b0 MATIC0.028485807
0xd2eff1fd3f78c1bffa85fbb599f26c40e0fb7f4c36d296b9e3db3da886be5794Execute Meta Tra...219674302021-11-30 8:32:011 hr 44 mins ago0xac70bfe5c17c82f00492beb552170cdbf2dae837OUT 0x7adbced399630dd11a97f2e2dc206911167071ae0 MATIC0.023942926
0xf0528f6f0745e257409e4ac70b63ec5e8bce0f96dc91c3a1a77ed739e819978bExecute Meta Tra...219668162021-11-30 8:10:402 hrs 5 mins ago0xac70bfe5c17c82f00492beb552170cdbf2dae837OUT 0x89aac1f5ccdd54dd8a09e5c858f19a665e4fa32b0 MATIC0.028485807
0xe8901f65910634ad038daf9f7f519beef4fe3d1ade7782698ead9ee00f60694eExecute Meta Tra...219665932021-11-30 8:02:432 hrs 13 mins ago0xac70bfe5c17c82f00492beb552170cdbf2dae837OUT 0x89aac1f5ccdd54dd8a09e5c858f19a665e4fa32b0 MATIC0.027629091
0xbbe749fc09768b77f3a8a1f80663f0db19b0be9e9960553a027f01e2b4589cc7Execute Meta Tra...219658572021-11-30 7:37:062 hrs 39 mins ago0xac70bfe5c17c82f00492beb552170cdbf2dae837OUT 0x89aac1f5ccdd54dd8a09e5c858f19a665e4fa32b0 MATIC0.028484211
0x645568f23f1487c33322fbe162317109a5c57a04a91f19c8430bfbddad4d57920x41706c4e219649542021-11-30 7:05:463 hrs 10 mins ago0xac70bfe5c17c82f00492beb552170cdbf2dae837OUT 0x86c80a8aa58e0a4fa09a69624c31ab2a6cad56b80 MATIC0.008011116
0x138814064f465b6596698ccafb7feb20e5b21536a9cbc4d51015e7b05a59a4f3Execute Meta Tra...219646492021-11-30 6:55:133 hrs 21 mins ago0xac70bfe5c17c82f00492beb552170cdbf2dae837OUT 0xbf79ce2fbd819e5abc2327563d02a200255b7cb30 MATIC0.006554373
0x6ac1b2672af7c7fabcc53ca6efca8eb8b2e5082ae1c5bb09a3d56ed3a4f95f9cExecute Meta Tra...219644972021-11-30 6:45:453 hrs 30 mins ago0xac70bfe5c17c82f00492beb552170cdbf2dae837OUT 0x6d4985146ebb237bfc8eca50f3e31c215ba31e740 MATIC0.040823685
0xd0ea2ce9e330c7fc8a9fd8f6c6afadf6c53ea3d72bc6b4b22ae3747d7ff58f2eExecute Meta Tra...219637492021-11-30 6:19:533 hrs 56 mins ago0xac70bfe5c17c82f00492beb552170cdbf2dae837OUT 0x89aac1f5ccdd54dd8a09e5c858f19a665e4fa32b0 MATIC0.028482615
0xad021d7dd69c6eb38e51541afa4024641745e05843555687d8b4ce1d3f2845deExecute Meta Tra...219635422021-11-30 6:12:474 hrs 3 mins ago0xac70bfe5c17c82f00492beb552170cdbf2dae837OUT 0x89aac1f5ccdd54dd8a09e5c858f19a665e4fa32b0 MATIC0.028485807
0xb136ac0dddf357b70dc4044b6d358c91e37a2585a9bfb3b3e393bb52b73e3d46Execute Meta Tra...219619792021-11-30 5:16:384 hrs 59 mins ago0xac70bfe5c17c82f00492beb552170cdbf2dae837OUT 0x89aac1f5ccdd54dd8a09e5c858f19a665e4fa32b0 MATIC0.028482615
0xdb94d06ca4a82563ad3f10da0df379e35bbe3634294d0ad77b3e5b652ad53f21Execute Meta Tra...219617302021-11-30 5:07:545 hrs 8 mins ago0xac70bfe5c17c82f00492beb552170cdbf2dae837OUT 0x89aac1f5ccdd54dd8a09e5c858f19a665e4fa32b0 MATIC0.028484211
0x69f109c9fd1b822eecc8f06f4d541e5f422c6247b9b57aebeb6a6c549cb5a62fExecute Meta Tra...219615832021-11-30 5:02:485 hrs 13 mins ago0xac70bfe5c17c82f00492beb552170cdbf2dae837OUT 0x89aac1f5ccdd54dd8a09e5c858f19a665e4fa32b0 MATIC0.028484211
0x5c7a82d3d6bde0618aec0714cdff350085515613ba33e33e95044860b69fd86eExecute Meta Tra...219610122021-11-30 4:38:245 hrs 37 mins ago0xac70bfe5c17c82f00492beb552170cdbf2dae837OUT 0x89aac1f5ccdd54dd8a09e5c858f19a665e4fa32b0 MATIC0.028482615
0xc526ad43c4a9a12be38efee7fc078aa28cfda3a137bbe589c15a135034ed0e73Execute Meta Tra...219605462021-11-30 4:21:015 hrs 55 mins ago0xac70bfe5c17c82f00492beb552170cdbf2dae837OUT 0x89aac1f5ccdd54dd8a09e5c858f19a665e4fa32b0 MATIC0.028485807
0xfdd9498e3737dcaf19cb71e8dc0a623a8f7af29304660e827d47467ee58ddd0fExecute Meta Tra...219603772021-11-30 4:15:116 hrs 1 min ago0xac70bfe5c17c82f00492beb552170cdbf2dae837OUT 0x89aac1f5ccdd54dd8a09e5c858f19a665e4fa32b0 MATIC0.028484211
0x63e6398c7e55592f84e4492a0fc0e761014dae3469f02b2522f4b5e996c3e9c0Execute Meta Tra...219601352021-11-30 4:06:556 hrs 9 mins ago0xac70bfe5c17c82f00492beb552170cdbf2dae837OUT 0x89aac1f5ccdd54dd8a09e5c858f19a665e4fa32b0 MATIC0.028485807
0x984e90a0bdd5f1e784125fa58e54a845ac1b7d91dd0b1e9166071b6b44f373fa0x41706c4e219599122021-11-30 3:59:136 hrs 17 mins ago0xac70bfe5c17c82f00492beb552170cdbf2dae837OUT 0x86c80a8aa58e0a4fa09a69624c31ab2a6cad56b80 MATIC0.026382013
0x472c176b00120dafb9fd783aa5f7462fb89232b40f6bd4f2ccb31234aebc6f55Execute Meta Tra...219593102021-11-30 3:34:166 hrs 42 mins ago0xac70bfe5c17c82f00492beb552170cdbf2dae837OUT 0x89aac1f5ccdd54dd8a09e5c858f19a665e4fa32b0 MATIC0.028482615
0x9b9e0cb8177d0930a822ddaf51ddfee478a066f9f1cc78412153ed1872297ae2Execute Meta Tra...219589442021-11-30 3:21:356 hrs 54 mins ago0xac70bfe5c17c82f00492beb552170cdbf2dae837OUT 0x89aac1f5ccdd54dd8a09e5c858f19a665e4fa32b0 MATIC0.028485807
0xeab6453733efe749e803ae0dde09f31fcf6fc49ecfc1d36c4a0530a5e56eb89aExecute Meta Tra...219585942021-11-30 3:09:357 hrs 6 mins ago0xac70bfe5c17c82f00492beb552170cdbf2dae837OUT 0x7adbced399630dd11a97f2e2dc206911167071ae0 MATIC0.023941197
0x5f02b8a3769b4360d77a0e07149e3353caf3bbb4b8915a579a465e2232b709a0Execute Meta Tra...219578362021-11-30 2:37:077 hrs 39 mins ago0xac70bfe5c17c82f00492beb552170cdbf2dae837OUT 0x89aac1f5ccdd54dd8a09e5c858f19a665e4fa32b0 MATIC0.027622899
[ Download CSV Export 
Parent Txn Hash Block From To Value
Loading

Contract Name:
0 MATIC

Compiler Version
0

Optimization Enabled:
0 MATIC

Other Settings:
-NA-
Block Transaction Gas Used Reward
Age Block Fee Address BC Fee Address Voting Power Jailed Incoming
Block Uncle Number Difficulty Gas Used Reward
Loading
Loading
Make sure to use the "Vote Down" button for any spammy posts, and the "Vote Up" for interesting conversations.